This demonstration page uses our WeatherBlox Daily Observations layout. Learn more.

Hourly Observations for November 6, 2019

Temp ( °F °C ) Dew Point ( °F °C ) Humidity (%) Winds ( mph kmh ) Pressure ( in mb ) Visibility ( mi km ) Precip ( " mm )
12:15 am 00:15 Clear 40 4.2 32 0 74 74 SW 6 9 30.2 1023 10 16.0934 0 0
12:35 am 00:35 Clear 39 4.1 32 0 75 75 SW 7 11 30.2 1023 10 16.0934 0 0
12:55 am 00:55 Clear 40 4.5 32 0 73 73 SW 8 13 30.19 1022 10 16.0934 0 0
1:15 am 01:15 Clear 40 4.2 32 0 74 74 SW 7 11 30.2 1023 10 16.0934 0 0
1:35 am 01:35 Clear 40 4.2 32 0 74 74 SW 7 11 30.2 1023 10 16.0934 0 0
1:55 am 01:55 Clear 40 4.5 32 0 73 73 SW 8 13 30.19 1022 10 16.0934 0 0
2:15 am 02:15 Clear 39 4.1 32 0 75 75 SW 7 11 30.19 1022 10 16.0934 0 0
2:35 am 02:35 Clear 39 4 32 0 75 75 SW 6 9 30.19 1022 10 16.0934 0 0
2:55 am 02:55 Clear 40 4.2 32 0 74 74 SW 5 7 30.19 1022 10 16.0934 0 0
3:15 am 03:15 Clear 39 4 32 0 75 75 WSW 3 6 30.19 1022 10 16.0934 0 0
3:35 am 03:35 Clear 39 4 32 0 75 75 SW 5 7 30.18 1022 10 16.0934 0 0
3:55 am 03:55 Clear 38 3.5 32 0 78 78 SW 6 9 30.18 1022 10 16.0934 0 0
4:15 am 04:15 Clear 38 3.5 32 0 78 78 SW 6 9 30.18 1022 10 16.0934 0 0
4:35 am 04:35 Clear 38 3.5 32 0 78 78 SSW 6 9 30.18 1022 10 16.0934 0 0
4:55 am 04:55 Clear 38 3.5 32 0 78 78 SW 5 7 30.18 1022 10 16.0934 0 0
5:15 am 05:15 Clear 38 3.3 32 0 79 79 SW 3 6 30.18 1022 10 16.0934 0 0
5:35 am 05:35 Clear 38 3.4 32 0 79 79 Calm 30.18 1022 10 16.0934 0 0
5:55 am 05:55 Clear 39 3.7 32 0 77 77 S 3 6 30.18 1022 10 16.0934 0 0
6:15 am 06:15 Clear 39 3.9 32 0 76 76 Calm 30.19 1022 10 16.0934 0 0
6:35 am 06:35 Clear 38 3.1 32 0 80 80 Calm 30.2 1023 10 16.0934 0 0
6:55 am 06:55 Clear 33 0.7 29 -1.5 85 85 N 7 11 30.23 1024 10 16.0934 0 0
7:15 am 07:15 Sunny 34 1.2 31 -0.8 87 87 N 6 9 30.23 1024 10 16.0934 0 0
7:35 am 07:35 Sunny 32 0 30 -1.1 92 92 NNE 7 11 30.26 1025 10 16.0934 0 0
7:55 am 07:55 Sunny 33 0.6 31 -0.5 92 92 NNE 7 11 30.26 1025 10 16.0934 0 0
8:15 am 08:15 Sunny 35 1.6 32 0.1 90 90 NNE 16 26 30.28 1025 10 16.0934 0 0
8:35 am 08:35 Mostly Cloudy 35 1.5 33 0.5 93 93 NNE 16 26 30.29 1026 10 16.0934 0 0
8:55 am 08:55 Cloudy 34 1 32 0.2 94 94 NNE 16 26 30.31 1026 10 16.0934 0 0
9:15 am 09:15 Cloudy 33 0.6 32 -0.1 95 95 NNE 18 30 30.32 1027 10 16.0934 0 0
9:35 am 09:35 Cloudy 32 0.2 31 -0.3 96 96 NNE 16 26 30.32 1027 7 11.26538 0 0
9:55 am 09:55 Cloudy 32 0 31 -0.5 96 96 NNE 15 24 30.35 1028 7 11.26538 0 0
10:15 am 10:15 Cloudy with Mist and Fog 32 0 31 -0.5 96 96 NNE 20 31 30.36 1028 5 8.0467 0 0
10:35 am 10:35 Cloudy with Mist and Fog 32 0 32 -0.2 99 99 NNE 22 35 30.36 1028 4 6.43736 0 0
10:55 am 10:55 Cloudy with Mist and Fog 32 0 32 -0.1 99 99 NNE 18 30 30.37 1028 5 8.0467 0 0
11:15 am 11:15 Cloudy 32 0 32 -0.2 99 99 NNE 23 37 30.38 1029 7 11.26538 0 0
11:35 am 11:35 Cloudy 32 0 31 -0.5 96 96 NNE 23 37 30.39 1029 7 11.26538 0 0
11:55 am 11:55 Cloudy 32 0 31 -0.5 96 96 NNE 22 35 30.39 1029 10 16.0934 0 0
12:15 pm 12:15 Cloudy 32 0.2 31 -0.5 95 95 NNE 21 33 30.39 1029 10 16.0934 0 0
12:35 pm 12:35 Cloudy 32 0.2 30 -0.9 92 92 NNE 25 41 30.38 1029 10 16.0934 0 0
12:55 pm 12:55 Cloudy 32 0.2 30 -1 92 92 NNE 25 41 30.37 1029 10 16.0934 0 0
1:15 pm 13:15 Cloudy 32 0.1 30 -1.1 92 92 NNE 23 37 30.38 1029 10 16.0934 0 0
1:35 pm 13:35 Cloudy 32 0.1 30 -1.2 91 91 NNE 24 39 30.38 1029 10 16.0934 0 0
1:55 pm 13:55 Cloudy 32 0.2 29 -1.5 89 89 NNE 24 39 30.39 1029 10 16.0934 0 0
2:15 pm 14:15 Cloudy 33 0.5 29 -1.6 86 86 NNE 25 41 30.4 1029 10 16.0934 0 0
2:35 pm 14:35 Cloudy 34 0.9 28 -2 81 81 NNE 24 39 30.41 1030 10 16.0934 0 0
2:55 pm 14:55 Cloudy 35 1.4 28 -2.4 76 76 NNE 29 46 30.4 1030 10 16.0934 0 0
3:15 pm 15:15 Cloudy 35 1.6 28 -2.5 74 74 NNE 22 35 30.4 1029 10 16.0934 0 0
3:35 pm 15:35 Cloudy 35 1.5 26 -3.6 69 69 NNE 24 39 30.42 1030 10 16.0934 0 0
3:55 pm 15:55 Cloudy 35 1.5 26 -3.5 70 70 NNE 24 39 30.43 1031 10 16.0934 0 0
4:15 pm 16:15 Cloudy 34 1.3 26 -3.5 71 71 NNE 24 39 30.43 1031 10 16.0934 0 0
4:35 pm 16:35 Cloudy 34 1.1 25 -3.7 71 71 NNE 23 37 30.45 1031 10 16.0934 0 0
4:55 pm 16:55 Cloudy 34 1 25 -4 70 70 NNE 20 31 30.46 1031 10 16.0934 0 0
5:15 pm 17:15 Cloudy 33 0.6 25 -4 72 72 NNE 24 39 30.46 1031 10 16.0934 0 0
5:35 pm 17:35 Cloudy 32 0.2 24 -4.4 72 72 NNE 25 41 30.47 1032 10 16.0934 0 0
5:55 pm 17:55 Cloudy 32 0 24 -4.2 74 74 NNE 21 33 30.5 1033 10 16.0934 0 0
6:15 pm 18:15 Cloudy 32 0 24 -4.3 73 73 NNE 22 35 30.51 1033 10 16.0934 0 0
6:35 pm 18:35 Cloudy 31 -0.3 24 -4.5 74 74 NNE 22 35 30.52 1033 10 16.0934 0 0
6:55 pm 18:55 Cloudy 31 -0.5 23 -4.8 73 73 NNE 18 30 30.53 1034 10 16.0934 0 0
7:15 pm 19:15 Cloudy 31 -0.5 23 -5 72 72 NNE 18 30 30.55 1035 10 16.0934 0 0
7:35 pm 19:35 Cloudy 31 -0.6 23 -4.9 73 73 NNE 15 24 30.55 1035 10 16.0934 0 0
7:55 pm 19:55 Cloudy 31 -0.8 24 -4.7 75 75 NNE 18 30 30.56 1035 10 16.0934 0 0
8:15 pm 20:15 Cloudy 30 -1 24 -4.7 76 76 NNE 21 33 30.57 1035 10 16.0934 0 0
8:35 pm 20:35 Cloudy 30 -1.1 24 -4.6 77 77 NNE 16 26 30.58 1035 10 16.0934 0 0
8:55 pm 20:55 Cloudy 30 -1.2 24 -4.5 79 79 NNE 22 35 30.59 1036 10 16.0934 0 0
9:15 pm 21:15 Cloudy 29 -1.5 24 -4.5 80 80 NNE 22 35 30.59 1036 10 16.0934 0 0
9:35 pm 21:35 Cloudy 29 -1.5 24 -4.5 80 80 NNE 20 31 30.6 1036 10 16.0934 0 0
9:55 pm 21:55 Cloudy 29 -1.7 25 -4.1 84 84 N 18 30 30.61 1037 10 16.0934 0 0
10:15 pm 22:15 Cloudy 28 -2.3 25 -4.1 88 88 N 20 31 30.63 1037 10 16.0934 0 0
10:35 pm 22:35 Cloudy 27 -2.8 24 -4.7 87 87 NNE 20 31 30.64 1038 10 16.0934 0 0
10:55 pm 22:55 Cloudy 27 -3 23 -4.9 87 87 NNE 17 28 30.66 1038 10 16.0934 0 0
11:15 pm 23:15 Cloudy 26 -3.2 23 -5 88 88 NNE 18 30 30.66 1038 10 16.0934 0 0
11:35 pm 23:35 Cloudy 26 -3.5 23 -5.1 89 89 N 17 28 30.66 1038 10 16.0934 0 0
11:55 pm 23:55 Cloudy 25 -3.9 22 -5.5 89 89 N 17 28 30.68 1039 10 16.0934 0 0

Powered by AerisWeather